ǯ����,��ʬ��,�Ǿ��������١�,ʿ���������١�,�����������١�,�Ǿ���®(m/s),ʿ����®(m/s),������®(m/s),����(���,���١ʡ��,����(hPa),�߱���(mm),�߱�����(�á�,�߱�����(mm/h),�ߤҤ礦��(hit/���),�ߤҤ礦����(�á�,�ߤҤ礦����(hit/���h),�ҡ�������(���,�ҡ������Ű���V),�Ÿ��Ű���V),�����Ű���V)
2007/02/01,00:00:01,206,341,152,0.1,2.3,6.3,15.9,56.2,1016.1,0.00,0,0.0,0.0,0,0.0,14.0,0.0,12.0,3.474
2007/02/01,00:10:01,175,339,155,0.1,1.9,5.3,15.9,57.8,1016.1,0.00,0,0.0,0.0,0,0.0,14.4,0.0,12.1,3.474
2007/02/01,00:20:01,161,326,141,0.1,2.3,5.8,16.0,58.7,1016.1,0.00,0,0.0,0.0,0,0.0,13.7,0.0,11.9,3.475
2007/02/01,00:30:01,157,332,142,0.0,2.4,6.4,16.0,58.5,1016.1,0.00,0,0.0,0.0,0,0.0,14.0,0.0,12.0,3.474
2007/02/01,00:40:01,161,338,155,0.0,2.1,6.0,15.9,58.3,1016.0,0.00,0,0.0,0.0,0,0.0,14.0,0.0,12.1,3.473
2007/02/01,00:50:01,174,328,143,0.0,2.4,5.9,15.9,57.6,1015.9,0.00,0,0.0,0.0,0,0.0,13.9,0.0,11.9,3.474
2007/02/01,01:00:01,136,312,127,0.1,2.1,4.7,16.0,58.0,1015.9,0.00,0,0.0,0.0,0,0.0,14.0,0.0,12.0,3.474
2007/02/01,01:10:01,203,326,142,0.0,2.3,5.7,15.9,57.1,1015.8,0.00,0,0.0,0.0,0,0.0,14.0,0.0,12.0,3.475
2007/02/01,01:20:01,143,319,139,0.0,2.2,5.9,15.9,56.9,1015.8,0.00,0,0.0,0.0,0,0.0,13.9,0.0,12.1,3.475
2007/02/01,01:30:01,118,298,113,0.0,2.0,5.5,16.0,58.1,1016.0,0.00,0,0.0,0.0,0,0.0,14.0,0.0,12.2,3.473
2007/02/01,01:40:01,142,318,138,0.0,2.3,7.4,16.1,56.4,1016.0,0.00,0,0.0,0.0,0,0.0,14.2,0.0,11.9,3.475
2007/02/01,01:50:01,131,309,129,0.0,2.3,6.5,16.0,57.2,1015.9,0.00,0,0.0,0.0,0,0.0,14.4,0.0,12.0,3.474
2007/02/01,02:00:01,127,311,125,0.0,2.3,7.7,16.0,58.3,1015.8,0.00,0,0.0,0.0,0,0.0,14.4,0.0,11.9,3.474
2007/02/01,02:10:01,126,301,124,0.0,2.3,6.5,16.0,56.5,1015.7,0.00,0,0.0,0.0,0,0.0,14.4,0.0,12.1,3.474
2007/02/01,02:20:01,147,316,134,0.0,2.4,9.7,16.0,58.1,1015.7,0.00,0,0.0,0.0,0,0.0,14.4,0.0,12.2,3.478
2007/02/01,02:30:01,131,309,129,0.0,2.5,7.0,15.9,56.7,1015.7,0.00,0,0.0,0.0,0,0.0,14.2,0.0,12.0,3.473
2007/02/01,02:40:01,161,313,129,0.1,2.5,7.7,16.0,55.8,1015.6,0.00,0,0.0,0.0,0,0.0,14.4,0.0,12.1,3.474
2007/02/01,02:50:01,134,313,133,0.1,2.6,7.7,16.0,57.8,1015.4,0.00,0,0.0,0.0,0,0.0,14.5,0.0,12.0,3.475
2007/02/01,03:00:01,139,319,136,0.0,3.0,8.4,16.0,57.8,1015.4,0.00,0,0.0,0.0,0,0.0,14.2,0.0,12.0,3.475
2007/02/01,03:10:01,155,328,149,0.1,3.1,8.3,16.0,57.1,1015.3,0.00,0,0.0,0.0,0,0.0,14.2,0.0,11.9,3.475
2007/02/01,03:20:01,136,312,133,0.0,3.1,10.0,15.9,54.9,1015.2,0.00,0,0.0,0.0,0,0.0,14.2,0.0,12.0,3.474
2007/02/01,03:30:01,132,307,116,0.0,3.2,8.8,16.0,54.6,1015.2,0.00,0,0.0,0.0,0,0.0,14.2,0.0,12.1,3.474
2007/02/01,03:40:01,143,317,136,0.0,3.3,9.1,16.0,52.7,1015.0,0.00,0,0.0,0.0,0,0.0,14.2,0.0,12.0,3.475
2007/02/01,03:50:01,122,303,95,0.1,3.2,10.4,16.0,53.8,1015.0,0.00,0,0.0,0.0,0,0.0,14.4,0.0,12.1,3.474
2007/02/01,04:00:01,141,321,133,0.1,3.0,9.4,16.0,54.5,1014.8,0.00,0,0.0,0.0,0,0.0,14.2,0.0,12.1,3.474
2007/02/01,04:10:01,134,311,131,0.1,3.7,11.2,15.9,53.5,1014.9,0.00,0,0.0,0.0,0,0.0,14.2,0.0,12.0,3.474
2007/02/01,04:20:01,145,322,139,0.0,3.7,11.9,16.0,54.0,1014.8,0.00,0,0.0,0.0,0,0.0,14.2,0.0,11.9,3.476
2007/02/01,04:30:01,139,319,135,0.1,3.9,11.0,15.8,52.3,1014.8,0.00,0,0.0,0.0,0,0.0,14.0,0.0,12.0,3.474
2007/02/01,04:40:01,153,324,141,0.0,4.3,10.8,15.8,50.7,1014.7,0.00,0,0.0,0.0,0,0.0,14.2,0.0,12.1,3.475
2007/02/01,04:50:01,137,315,132,0.0,3.8,12.0,15.8,48.5,1014.8,0.00,0,0.0,0.0,0,0.0,14.0,0.0,12.0,3.475
2007/02/01,05:00:01,146,324,138,0.1,4.1,11.2,15.7,47.6,1014.8,0.00,0,0.0,0.0,0,0.0,13.9,0.0,12.0,3.475
2007/02/01,05:10:01,145,322,132,0.1,3.6,9.5,15.6,47.4,1014.8,0.00,0,0.0,0.0,0,0.0,13.7,0.0,12.0,3.475
2007/02/01,05:20:01,161,335,151,0.1,3.7,9.5,15.6,50.1,1014.8,0.00,0,0.0,0.0,0,0.0,13.7,0.0,12.0,3.475
2007/02/01,05:30:01,173,341,152,0.1,4.0,10.2,15.7,51.1,1014.8,0.00,0,0.0,0.0,0,0.0,13.9,0.0,12.0,3.475
2007/02/01,05:40:01,200,346,147,0.0,4.3,10.7,15.6,47.7,1014.7,0.00,0,0.0,0.0,0,0.0,13.5,0.0,12.0,3.475
2007/02/01,05:50:01,175,342,149,0.0,4.3,10.9,15.5,51.6,1014.9,0.00,0,0.0,0.0,0,0.0,13.9,0.0,12.1,3.474
2007/02/01,06:00:01,172,347,145,0.4,4.0,9.0,15.5,50.6,1015.0,0.00,0,0.0,0.0,0,0.0,13.7,0.0,12.0,3.475
2007/02/01,06:10:01,206,345,152,0.1,5.0,10.6,15.7,51.5,1015.0,0.00,0,0.0,0.0,0,0.0,13.7,0.0,12.1,3.474
2007/02/01,06:20:01,173,337,146,0.1,4.3,10.3,15.6,50.6,1015.0,0.00,0,0.0,0.0,0,0.0,13.7,0.0,12.1,3.474
2007/02/01,06:30:01,183,338,156,0.0,3.9,10.4,15.6,47.4,1015.1,0.00,0,0.0,0.0,0,0.0,13.7,0.0,12.0,3.475
2007/02/01,06:40:01,160,335,154,0.1,4.0,9.9,15.7,48.4,1015.1,0.00,0,0.0,0.0,0,0.0,13.7,0.0,12.0,3.475
2007/02/01,06:50:01,162,337,155,0.1,3.5,8.7,15.6,46.1,1015.4,0.00,0,0.0,0.0,0,0.0,13.5,0.0,12.0,3.474
2007/02/01,07:00:01,165,337,133,0.2,4.0,10.4,15.7,48.6,1015.6,0.00,0,0.0,0.0,0,0.0,13.7,0.0,12.1,3.474
2007/02/01,07:10:01,172,347,152,0.1,4.8,11.9,15.7,48.2,1015.7,0.00,0,0.0,0.0,0,0.0,13.9,0.0,12.1,3.475
2007/02/01,07:20:01,171,343,133,0.2,4.8,12.0,15.8,47.7,1015.8,0.00,0,0.0,0.0,0,0.0,14.0,0.0,12.1,3.474
2007/02/01,07:30:01,174,342,137,0.1,4.3,11.7,15.8,50.3,1015.8,0.00,0,0.0,0.0,0,0.0,13.9,0.0,12.0,3.475
2007/02/01,07:40:01,170,342,160,0.1,4.4,11.2,15.8,47.5,1015.9,0.00,0,0.0,0.0,0,0.0,14.2,0.0,12.0,3.476
2007/02/01,07:50:01,224,340,142,0.2,4.4,11.0,15.9,48.7,1015.8,0.00,0,0.0,0.0,0,0.0,14.4,0.0,12.0,3.474
2007/02/01,08:00:01,229,338,155,0.1,4.8,10.4,15.9,47.6,1016.0,0.00,0,0.0,0.0,0,0.0,14.9,0.0,12.2,3.475
2007/02/01,08:10:01,153,330,142,0.2,4.1,10.7,15.9,47.5,1016.0,0.00,0,0.0,0.0,0,0.0,14.9,0.0,12.1,3.473
2007/02/01,08:20:01,160,327,143,0.1,3.5,9.8,15.9,49.3,1015.9,0.00,0,0.0,0.0,0,0.0,14.7,0.0,12.2,3.474
2007/02/01,08:30:01,160,340,158,0.1,3.5,8.6,15.9,47.7,1016.1,0.00,0,0.0,0.0,0,0.0,15.0,0.0,12.1,3.474
2007/02/01,08:40:01,160,333,152,0.1,3.1,8.5,16.0,51.6,1016.1,0.00,0,0.0,0.0,0,0.0,15.4,0.0,12.2,3.472
2007/02/01,08:50:01,152,328,146,0.0,3.3,10.0,16.1,51.5,1016.0,0.00,0,0.0,0.0,0,0.0,15.7,0.0,12.2,3.474
2007/02/01,09:00:01,146,323,139,0.1,3.7,9.5,16.3,52.2,1016.1,0.00,0,0.0,0.0,0,0.0,15.9,0.0,12.1,3.474
2007/02/01,09:10:01,152,333,151,0.0,3.3,8.1,16.3,51.1,1016.2,0.00,0,0.0,0.0,0,0.0,15.9,0.0,12.2,3.475
2007/02/01,09:20:01,159,337,144,0.1,3.7,10.6,16.5,53.7,1016.2,0.00,0,0.0,0.0,0,0.0,16.0,0.0,11.9,3.474
2007/02/01,09:30:01,160,330,151,0.0,3.3,10.3,16.3,51.6,1016.2,0.00,0,0.0,0.0,0,0.0,15.7,0.0,12.0,3.474
2007/02/01,09:40:01,143,326,138,0.0,3.9,9.1,16.4,52.8,1016.3,0.00,0,0.0,0.0,0,0.0,15.5,0.0,12.1,3.475
2007/02/01,09:50:01,145,320,139,0.0,3.6,11.3,16.7,53.9,1016.3,0.00,0,0.0,0.0,0,0.0,16.0,0.0,12.1,3.474
2007/02/01,10:00:01,172,331,150,0.0,3.9,9.6,16.7,51.8,1016.2,0.00,0,0.0,0.0,0,0.0,16.5,0.0,11.8,3.474
2007/02/01,10:10:01,149,326,143,0.0,3.9,9.4,16.7,50.7,1016.2,0.00,0,0.0,0.0,0,0.0,16.7,0.0,12.1,3.472
2007/02/01,10:20:01,142,317,135,0.0,3.8,10.6,16.7,51.3,1016.1,0.00,0,0.0,0.0,0,0.0,16.5,0.0,12.0,3.476
2007/02/01,10:30:01,133,315,131,0.1,3.0,13.0,16.6,51.0,1016.0,0.00,0,0.0,0.0,0,0.0,16.2,0.0,12.1,3.475
2007/02/01,10:40:01,127,302,124,0.0,2.9,10.0,16.6,52.1,1015.9,0.00,0,0.0,0.0,0,0.0,15.5,0.0,12.2,3.474
2007/02/01,10:50:01,133,312,129,0.1,3.2,10.2,16.8,53.9,1015.8,0.00,0,0.0,0.0,0,0.0,15.9,0.0,12.1,3.474
2007/02/01,11:00:01,179,319,138,0.1,4.0,9.6,16.7,55.0,1015.6,0.00,0,0.0,0.0,0,0.0,15.5,0.0,12.3,3.474
2007/02/01,11:10:01,138,316,134,0.0,3.5,12.1,16.9,54.3,1015.5,0.00,0,0.0,0.0,0,0.0,15.7,0.0,12.2,3.474
2007/02/01,11:20:01,131,310,120,0.1,3.8,11.1,16.9,53.6,1015.3,0.00,0,0.0,0.0,0,0.0,16.0,0.0,12.1,3.474
2007/02/01,11:30:01,142,325,139,0.0,4.1,10.3,16.6,58.2,1015.2,0.00,10,0.0,0.0,0,0.0,15.5,0.0,12.0,3.474
2007/02/01,11:40:01,155,331,142,0.1,5.5,13.0,16.9,61.9,1015.0,0.00,0,0.0,0.0,0,0.0,15.7,0.0,11.9,3.473
2007/02/01,11:50:01,185,331,151,0.3,7.2,17.3,16.5,59.7,1015.0,0.00,0,0.0,0.0,0,0.0,15.5,0.0,12.1,3.473
2007/02/01,12:00:01,162,343,146,0.4,6.5,16.1,16.4,61.0,1015.0,0.00,0,0.0,0.0,0,0.0,15.4,0.0,12.0,3.474
2007/02/01,12:10:01,182,346,147,0.2,6.9,15.7,16.4,58.9,1015.0,0.00,0,0.0,0.0,0,0.0,15.5,0.0,12.2,3.474
2007/02/01,12:20:01,163,337,132,0.0,6.4,16.9,16.5,58.1,1014.8,0.00,0,0.0,0.0,0,0.0,15.9,0.0,12.0,3.474
2007/02/01,12:30:01,164,342,158,0.1,6.6,16.6,16.6,58.2,1014.7,0.00,0,0.0,0.0,0,0.0,16.4,0.0,12.1,3.474
2007/02/01,12:40:01,163,328,145,0.2,6.6,16.4,16.8,56.0,1014.7,0.00,0,0.0,0.0,0,0.0,17.0,0.0,12.1,3.474
2007/02/01,12:50:01,175,333,136,0.2,7.3,20.1,16.7,58.5,1014.5,0.00,0,0.0,0.0,0,0.0,16.7,0.0,11.9,3.474
2007/02/01,13:00:01,157,329,143,0.2,7.4,17.7,16.4,57.6,1014.8,0.00,0,0.0,0.0,0,0.0,16.9,0.0,12.0,3.473
2007/02/01,13:10:01,156,334,147,0.4,7.4,18.4,16.0,57.5,1014.6,0.00,0,0.0,0.0,0,0.0,15.2,0.0,12.2,3.474
2007/02/01,13:20:01,165,340,153,0.1,7.0,16.9,16.1,59.2,1014.7,0.00,10,0.0,0.0,0,0.0,16.2,0.0,12.1,3.474
2007/02/01,13:30:01,166,347,165,0.0,7.0,16.3,16.0,58.1,1014.7,0.00,0,0.0,0.0,0,0.0,16.4,0.0,11.9,3.473
2007/02/01,13:40:01,192,347,147,0.2,6.7,15.9,16.0,61.7,1014.6,0.00,0,0.0,0.0,0,0.0,15.5,0.0,12.0,3.474
2007/02/01,13:50:01,161,341,160,0.3,6.3,14.8,15.6,57.3,1014.4,0.00,0,0.0,0.0,0,0.0,15.0,0.0,11.9,3.474
2007/02/01,14:00:01,161,337,143,0.1,6.5,15.3,15.4,58.1,1014.5,0.00,0,0.0,0.0,0,0.0,14.4,0.0,11.9,3.474
2007/02/01,14:10:01,179,333,136,0.1,6.1,14.5,15.7,55.5,1014.3,0.00,0,0.0,0.0,0,0.0,14.7,0.0,12.1,3.475
2007/02/01,14:20:01,227,333,138,0.2,6.4,14.9,15.6,53.8,1014.3,0.00,0,0.0,0.0,0,0.0,14.7,0.0,12.0,3.474
2007/02/01,14:30:01,166,338,154,0.1,6.5,16.6,15.5,55.8,1014.5,0.00,0,0.0,0.0,0,0.0,15.4,0.0,12.1,3.475
2007/02/01,14:40:01,179,340,155,0.1,7.5,19.6,15.1,55.1,1014.3,0.00,10,0.0,0.0,0,0.0,14.4,0.0,12.0,3.474
2007/02/01,14:50:01,161,336,157,0.0,6.2,17.5,15.3,55.9,1014.5,0.00,0,0.0,0.0,0,0.0,14.2,0.0,12.2,3.474
2007/02/01,15:00:01,188,343,156,0.0,7.0,15.4,15.1,55.7,1014.4,0.00,0,0.0,0.0,0,0.0,14.2,0.0,12.1,3.474
2007/02/01,15:10:01,166,344,136,0.1,6.1,15.0,14.8,58.5,1014.6,0.00,0,0.0,0.0,0,0.0,14.2,0.0,11.9,3.473
2007/02/01,15:20:01,196,339,152,0.1,6.8,16.3,14.9,59.7,1014.5,0.00,60,0.0,0.0,0,0.0,13.7,0.0,12.1,3.474
2007/02/01,15:30:01,185,341,152,0.2,6.1,16.9,14.7,56.9,1014.5,0.00,10,0.0,0.0,0,0.0,13.4,0.0,12.1,3.475
2007/02/01,15:40:01,200,348,141,0.6,7.4,15.2,14.8,56.8,1014.5,0.02,30,0.0,0.0,0,0.0,13.5,0.0,12.1,3.476
2007/02/01,15:50:01,166,343,148,0.2,6.4,15.8,15.1,55.5,1014.4,0.00,0,0.0,0.0,0,0.0,14.2,0.0,12.0,3.474
2007/02/01,16:00:01,174,338,152,0.3,6.3,17.0,15.0,52.8,1014.5,0.00,0,0.0,0.0,0,0.0,14.2,0.0,11.9,3.474
2007/02/01,16:10:01,170,344,163,0.1,6.1,16.3,15.0,55.6,1014.5,0.00,0,0.0,0.0,0,0.0,14.4,0.0,12.0,3.475
2007/02/01,16:20:01,175,341,131,0.0,6.9,16.5,14.8,50.0,1014.4,0.00,0,0.0,0.0,0,0.0,13.9,0.0,12.0,3.476
2007/02/01,16:30:01,159,335,153,0.1,6.0,15.0,14.7,52.8,1014.8,0.00,0,0.0,0.0,0,0.0,13.5,0.0,12.0,3.475
2007/02/01,16:40:01,174,337,148,0.1,5.8,14.3,14.6,48.6,1014.8,0.00,0,0.0,0.0,0,0.0,13.4,0.0,12.1,3.475
2007/02/01,16:50:01,163,333,141,0.1,5.9,14.1,14.6,50.6,1014.8,0.00,0,0.0,0.0,0,0.0,13.2,0.0,12.1,3.475
2007/02/01,17:00:01,179,339,155,0.1,6.0,15.8,14.3,57.4,1014.9,0.00,0,0.0,0.0,0,0.0,12.8,0.0,12.1,3.475
2007/02/01,17:10:01,174,340,142,0.1,6.8,14.6,14.5,53.5,1015.0,0.00,0,0.0,0.0,0,0.0,13.2,0.0,11.9,3.475
2007/02/01,17:20:01,156,336,153,0.3,5.9,14.8,14.6,54.1,1014.9,0.00,0,0.0,0.0,0,0.0,13.5,0.0,12.1,3.475
2007/02/01,17:30:01,162,342,157,0.2,6.0,14.0,14.5,56.1,1015.0,0.00,0,0.0,0.0,0,0.0,13.4,0.0,12.0,3.475
2007/02/01,17:40:01,174,350,161,0.1,7.4,14.9,14.5,60.4,1015.1,0.00,0,0.0,0.0,0,0.0,12.7,0.0,12.2,3.475
2007/02/01,17:50:02,199,347,167,0.1,7.4,16.5,14.3,59.7,1015.1,0.00,0,0.0,0.0,0,0.0,12.8,0.0,12.2,3.475
2007/02/01,18:00:01,191,351,163,0.1,7.3,16.9,14.4,56.7,1015.2,0.00,0,0.0,0.0,0,0.0,12.8,0.0,11.9,3.474
2007/02/01,18:10:01,182,344,152,0.2,6.2,14.9,14.2,56.0,1015.3,0.00,0,0.0,0.0,0,0.0,12.5,0.0,12.1,3.476
2007/02/01,18:20:01,226,334,156,0.2,6.8,16.7,14.2,51.8,1015.4,0.00,0,0.0,0.0,0,0.0,12.5,0.0,12.1,3.475
2007/02/01,18:30:01,167,344,142,0.2,6.6,17.5,14.2,52.2,1015.5,0.00,0,0.0,0.0,0,0.0,12.5,0.0,12.1,3.473
2007/02/01,18:40:01,240,348,166,0.2,7.1,15.5,13.9,50.5,1015.6,0.00,0,0.0,0.0,0,0.0,12.5,0.0,12.2,3.475
2007/02/01,18:50:01,164,343,144,0.2,5.3,14.0,14.1,51.9,1015.8,0.00,0,0.0,0.0,0,0.0,12.3,0.0,12.1,3.475
2007/02/01,19:00:01,226,349,164,0.2,6.2,14.2,14.1,56.2,1015.8,0.00,0,0.0,0.0,0,0.0,12.3,0.0,12.1,3.475
2007/02/01,19:10:01,213,343,145,0.0,6.6,18.1,14.0,53.6,1016.0,0.00,0,0.0,0.0,0,0.0,12.3,0.0,12.1,3.475
2007/02/01,19:20:01,177,346,159,0.2,6.9,14.6,13.8,51.4,1016.2,0.00,0,0.0,0.0,0,0.0,12.2,0.0,12.1,3.476
2007/02/01,19:30:01,201,342,141,0.2,6.0,15.7,13.9,52.3,1016.2,0.00,0,0.0,0.0,0,0.0,12.0,0.0,12.1,3.476
2007/02/01,19:40:01,167,338,150,0.3,5.5,14.3,13.8,56.7,1016.3,0.00,0,0.0,0.0,0,0.0,12.0,0.0,12.2,3.476
2007/02/01,19:50:01,220,350,165,0.3,7.5,18.3,13.7,53.5,1016.3,0.00,0,0.0,0.0,0,0.0,12.0,0.0,11.9,3.476
2007/02/01,20:00:01,166,344,139,0.2,6.4,14.8,13.7,51.8,1016.5,0.00,0,0.0,0.0,0,0.0,12.0,0.0,12.0,3.475
2007/02/01,20:10:01,172,344,159,0.1,6.2,17.4,13.5,49.2,1016.7,0.00,0,0.0,0.0,0,0.0,11.8,0.0,11.9,3.475
2007/02/01,20:20:01,208,337,153,0.3,5.9,16.7,13.4,53.0,1016.7,0.00,0,0.0,0.0,0,0.0,11.7,0.0,12.1,3.476
2007/02/01,20:30:01,159,333,145,0.2,6.2,17.0,13.6,47.5,1016.7,0.00,0,0.0,0.0,0,0.0,11.7,0.0,12.1,3.474
2007/02/01,20:40:01,181,335,136,0.1,6.1,14.4,13.4,52.3,1016.8,0.00,0,0.0,0.0,0,0.0,11.8,0.0,12.1,3.475
2007/02/01,20:50:01,167,345,161,0.2,5.7,13.8,13.4,60.0,1016.7,0.00,0,0.0,0.0,0,0.0,11.8,0.0,12.2,3.475
2007/02/01,21:00:01,175,345,159,0.1,6.1,15.3,13.3,55.8,1016.8,0.00,0,0.0,0.0,0,0.0,11.8,0.0,12.1,3.474
2007/02/01,21:10:01,182,346,144,0.1,6.6,15.0,13.4,54.5,1016.9,0.00,0,0.0,0.0,0,0.0,11.8,0.0,12.1,3.475
2007/02/01,21:20:01,197,345,142,0.2,7.1,16.2,13.3,56.5,1016.9,0.00,0,0.0,0.0,0,0.0,11.8,0.0,11.9,3.475
2007/02/01,21:30:01,243,351,122,1.1,7.5,14.9,13.1,54.3,1016.9,0.00,0,0.0,0.0,0,0.0,11.5,0.0,12.1,3.475
2007/02/01,21:40:01,241,351,169,0.2,7.5,16.1,13.0,53.7,1017.2,0.00,0,0.0,0.0,0,0.0,11.3,0.0,12.0,3.475
2007/02/01,21:50:01,225,346,159,0.3,6.4,15.5,13.0,52.1,1017.0,0.00,0,0.0,0.0,0,0.0,10.7,0.0,12.1,3.476
2007/02/01,22:00:01,164,344,160,0.2,6.1,14.7,13.1,49.5,1017.0,0.00,0,0.0,0.0,0,0.0,11.3,0.0,12.0,3.476
2007/02/01,22:10:01,250,349,149,0.4,7.1,14.2,13.3,54.5,1017.1,0.00,0,0.0,0.0,0,0.0,11.5,0.0,12.0,3.475
2007/02/01,22:20:01,191,344,150,0.1,6.4,14.6,13.4,50.5,1017.1,0.00,0,0.0,0.0,0,0.0,11.5,0.0,12.2,3.475
2007/02/01,22:30:01,166,341,155,0.3,6.2,17.5,13.4,55.4,1017.1,0.00,0,0.0,0.0,0,0.0,11.7,0.0,12.1,3.475
2007/02/01,22:40:01,185,346,132,0.3,7.6,16.9,13.2,51.0,1017.1,0.00,0,0.0,0.0,0,0.0,11.5,0.0,12.0,3.476
2007/02/01,22:50:01,175,335,155,0.2,6.5,16.8,13.2,49.4,1017.2,0.00,0,0.0,0.0,0,0.0,11.5,0.0,12.0,3.475
2007/02/01,23:00:01,209,334,155,0.2,6.2,15.3,13.4,49.3,1017.2,0.00,0,0.0,0.0,0,0.0,11.7,0.0,12.1,3.475
2007/02/01,23:10:01,164,332,132,0.1,5.6,13.8,13.1,55.2,1017.2,0.00,0,0.0,0.0,0,0.0,11.5,0.0,12.1,3.475
2007/02/01,23:20:01,172,339,140,0.1,5.3,14.7,13.3,57.9,1017.2,0.00,40,0.1,0.0,0,0.0,11.3,0.0,12.1,3.475
2007/02/01,23:30:01,181,347,158,0.2,6.6,17.0,12.9,64.7,1017.3,0.17,350,0.0,0.0,0,0.0,10.5,0.0,12.2,3.475
2007/02/01,23:40:01,165,337,144,0.1,5.9,15.5,12.5,64.6,1017.2,0.00,50,0.0,0.0,0,0.0,10.3,0.0,11.9,3.475
2007/02/01,23:50:01,244,336,135,0.4,5.7,13.7,13.2,57.3,1017.0,0.00,0,0.0,0.0,0,0.0,11.0,0.0,12.0,3.475
2007/02/02,00:00:01,205,348,163,0.2,7.4,19.1,13.2,57.2,1016.9,0.00,0,0.0,0.0,0,0.0,11.5,0.0,11.9,3.474
2007/02/02,00:10:01,247,347,143,0.3,7.2,16.1,13.1,56.6,1017.0,0.01,40,0.0,0.0,0,0.0,11.3,0.0,12.3,3.475
2007/02/02,00:20:01,155,331,137,0.2,7.0,17.2,13.2,56.5,1016.9,0.00,0,0.0,0.0,0,0.0,11.3,0.0,12.3,3.475
2007/02/02,00:30:01,254,344,141,0.6,7.4,16.6,13.0,60.0,1017.0,0.00,0,0.0,0.0,0,0.0,11.5,0.0,12.0,3.475
2007/02/02,00:40:01,276,349,169,0.3,7.5,16.3,12.9,59.8,1017.0,0.00,0,0.0,0.0,0,0.0,11.5,0.0,11.9,3.475
2007/02/02,00:50:01,233,347,152,0.2,5.2,13.0,12.9,59.8,1017.0,0.00,0,0.0,0.0,0,0.0,11.0,0.0,12.0,3.475
2007/02/02,01:00:01,189,336,137,0.2,6.2,16.4,13.3,57.8,1017.0,0.00,0,0.0,0.0,0,0.0,11.5,0.0,11.9,3.474
2007/02/02,01:10:01,166,338,155,0.1,5.1,14.1,13.2,50.9,1017.0,0.00,0,0.0,0.0,0,0.0,11.5,0.0,12.1,3.475
2007/02/02,01:20:01,167,334,147,0.3,6.2,14.3,13.1,53.3,1016.9,0.00,0,0.0,0.0,0,0.0,11.5,0.0,12.1,3.474
2007/02/02,01:30:01,191,347,154,0.1,6.5,14.5,12.8,59.9,1017.1,0.00,20,0.0,0.0,0,0.0,11.2,0.0,12.0,3.476
2007/02/02,01:40:01,186,342,157,0.2,5.8,16.5,13.0,57.1,1016.8,0.00,0,0.0,0.0,0,0.0,11.0,0.0,12.2,3.475
2007/02/02,01:50:01,184,350,166,0.1,7.9,16.8,12.9,56.0,1017.0,0.00,30,0.6,0.0,0,0.0,11.2,0.0,12.0,3.474
2007/02/02,02:00:01,183,348,155,0.1,6.7,17.0,12.9,54.5,1016.8,0.00,0,0.0,0.0,0,0.0,11.2,0.0,12.0,3.476
2007/02/02,02:10:01,158,335,132,0.1,5.9,15.3,13.2,53.3,1016.8,0.00,0,0.0,0.0,0,0.0,11.3,0.0,12.0,3.475
2007/02/02,02:20:01,201,334,155,0.1,5.7,15.8,13.0,55.3,1016.8,0.00,0,0.0,0.0,0,0.0,11.3,0.0,12.0,3.476
2007/02/02,02:30:01,176,337,153,0.4,5.6,15.3,13.0,55.3,1016.7,0.00,0,0.0,0.0,0,0.0,11.2,0.0,12.1,3.476
2007/02/02,02:40:01,188,346,130,0.5,6.8,14.7,13.0,51.4,1016.8,0.00,0,0.0,0.0,0,0.0,11.3,0.0,12.2,3.475
2007/02/02,02:50:01,175,343,160,0.2,6.2,16.6,13.0,58.9,1016.7,0.00,0,0.0,0.0,0,0.0,11.5,0.0,12.0,3.475
2007/02/02,03:00:01,184,343,161,0.1,6.1,15.0,13.0,53.4,1016.7,0.00,0,0.0,0.0,0,0.0,11.5,0.0,12.0,3.476
2007/02/02,03:10:01,170,348,167,0.1,6.1,13.9,12.9,55.1,1016.7,0.00,0,0.0,0.0,0,0.0,11.5,0.0,12.1,3.475
2007/02/02,03:20:01,182,345,142,0.1,6.4,16.4,12.9,56.9,1016.7,0.00,0,0.0,0.0,0,0.0,11.2,0.0,12.0,3.475
2007/02/02,03:30:01,193,340,136,0.1,5.5,15.2,12.7,54.4,1016.5,0.01,70,0.0,0.0,0,0.0,10.8,0.0,12.1,3.476
2007/02/02,03:40:01,192,343,144,0.2,6.3,16.8,13.1,50.2,1016.7,0.00,0,0.0,0.0,0,0.0,11.3,0.0,12.1,3.475
2007/02/02,03:50:01,165,342,147,0.3,6.4,15.5,13.3,52.0,1016.5,0.00,0,0.0,0.0,0,0.0,11.5,0.0,12.2,3.475
2007/02/02,04:00:01,168,335,138,0.2,5.6,15.4,13.3,49.6,1016.3,0.00,0,0.0,0.0,0,0.0,11.2,0.0,12.0,3.476
2007/02/02,04:10:01,174,339,141,0.2,5.9,14.8,12.9,52.9,1016.4,0.00,10,0.0,0.0,0,0.0,11.5,0.0,12.1,3.475
2007/02/02,04:20:01,230,342,144,0.2,7.1,15.3,11.9,64.9,1016.5,0.11,220,3.1,0.0,0,0.0,10.3,0.0,12.0,3.476
2007/02/02,04:30:01,248,332,145,0.1,6.0,16.0,11.6,68.4,1016.2,0.69,370,0.0,0.0,0,0.0,9.2,0.0,12.1,3.478
2007/02/02,04:40:01,195,345,137,0.1,6.9,17.8,12.2,60.1,1016.1,0.00,20,0.0,0.0,0,0.0,9.8,0.0,12.2,3.476
2007/02/02,04:50:01,165,340,151,0.1,6.4,15.5,12.4,56.7,1016.1,0.00,0,0.0,0.0,0,0.0,10.3,0.0,12.0,3.476
2007/02/02,05:00:01,218,341,155,0.4,6.7,15.3,12.6,52.7,1016.0,0.00,0,0.0,0.0,0,0.0,10.8,0.0,12.1,3.475
2007/02/02,05:10:01,163,341,141,0.0,6.1,14.3,12.6,54.0,1016.0,0.00,0,0.0,0.0,0,0.0,10.8,0.0,12.1,3.476
2007/02/02,05:20:01,248,339,139,0.2,6.2,15.3,12.8,56.9,1015.9,0.00,0,0.0,0.0,0,0.0,11.0,0.0,11.9,3.475
2007/02/02,05:30:01,178,345,113,0.2,6.3,12.9,12.7,59.2,1015.9,0.00,0,0.0,0.0,0,0.0,11.2,0.0,12.2,3.475
2007/02/02,05:40:01,163,342,147,0.1,6.3,14.8,12.5,63.1,1016.2,0.00,10,0.2,0.0,0,0.0,11.0,0.0,12.0,3.476
2007/02/02,05:50:01,231,343,148,0.2,6.3,15.8,11.9,62.9,1016.2,0.07,110,0.1,0.0,0,0.0,10.0,0.0,12.1,3.475
2007/02/02,06:00:01,220,342,145,0.2,6.4,16.0,12.1,62.2,1016.1,0.07,250,0.0,0.0,0,0.0,9.8,0.0,11.9,3.476
2007/02/02,06:10:01,258,348,145,0.1,8.1,17.3,12.4,62.8,1016.2,0.00,0,0.0,0.0,0,0.0,10.5,0.0,11.9,3.475
2007/02/02,06:20:01,195,348,144,0.1,7.3,14.9,12.2,59.6,1016.2,0.01,120,1.0,0.0,0,0.0,10.3,0.0,12.1,3.475
2007/02/02,06:30:01,196,340,156,0.3,6.5,16.6,12.6,58.4,1016.1,0.01,60,0.0,0.0,0,0.0,10.3,0.0,12.1,3.476
2007/02/02,06:40:01,233,341,160,0.2,6.5,16.7,12.7,57.2,1016.3,0.00,0,0.0,0.0,0,0.0,10.7,0.0,12.2,3.475
2007/02/02,06:50:01,158,337,145,0.3,6.6,17.0,12.9,51.0,1016.3,0.00,0,0.0,0.0,0,0.0,11.2,0.0,12.0,3.474
2007/02/02,07:00:01,163,329,144,0.1,6.5,15.6,13.0,52.1,1016.3,0.00,0,0.0,0.0,0,0.0,11.0,0.0,12.2,3.475
2007/02/02,07:10:01,213,336,144,0.1,5.7,14.7,13.0,50.6,1016.4,0.00,0,0.0,0.0,0,0.0,11.3,0.0,12.1,3.475
2007/02/02,07:20:01,180,334,140,0.1,5.6,14.9,12.9,52.2,1016.4,0.00,0,0.0,0.0,0,0.0,10.7,0.0,12.1,3.476
2007/02/02,07:30:01,173,332,138,0.1,5.2,12.9,12.9,51.2,1016.6,0.00,0,0.0,0.0,0,0.0,11.3,0.0,12.1,3.475
2007/02/02,07:40:01,166,336,153,0.1,6.1,16.2,12.9,56.7,1016.7,0.00,0,0.0,0.0,0,0.0,11.3,0.0,12.1,3.476
2007/02/02,07:50:01,177,336,144,0.1,5.2,13.7,12.7,56.4,1016.6,0.00,0,0.0,0.0,0,0.0,11.2,0.0,12.1,3.475
2007/02/02,08:00:01,178,337,154,0.1,4.9,11.4,12.7,55.7,1016.6,0.00,0,0.0,0.0,0,0.0,11.2,0.0,12.2,3.476
2007/02/02,08:10:01,161,330,146,0.2,4.5,13.3,12.9,59.7,1016.7,0.00,0,0.0,0.0,0,0.0,11.2,0.0,12.0,3.474
2007/02/02,08:20:01,163,334,152,0.2,5.4,13.2,12.7,55.2,1016.9,0.01,10,0.0,0.0,0,0.0,11.3,0.0,12.1,3.475
2007/02/02,08:30:01,182,333,152,0.2,5.2,13.6,12.9,57.9,1017.0,0.00,0,0.0,0.0,0,0.0,11.3,0.0,12.2,3.475
2007/02/02,08:40:01,161,326,142,0.1,4.8,14.6,13.1,55.6,1017.0,0.00,0,0.0,0.0,0,0.0,11.7,0.0,12.2,3.474
2007/02/02,08:50:01,191,343,163,0.1,4.8,12.5,13.2,53.9,1017.1,0.00,0,0.0,0.0,0,0.0,11.8,0.0,12.1,3.475
2007/02/02,09:00:01,149,328,144,0.1,5.7,14.7,13.0,55.7,1017.2,0.00,0,0.0,0.0,0,0.0,11.7,0.0,12.1,3.475
2007/02/02,09:10:01,151,332,147,0.1,5.4,13.8,13.1,59.8,1017.5,0.00,0,0.0,0.0,0,0.0,11.5,0.0,12.1,3.475
2007/02/02,09:20:01,152,327,144,0.2,5.3,13.8,12.7,54.1,1017.6,0.00,0,0.0,0.0,0,0.0,11.3,0.0,12.2,3.475
2007/02/02,09:30:01,189,332,145,0.1,5.0,12.0,13.0,55.1,1017.7,0.00,0,0.0,0.0,0,0.0,11.5,0.0,12.1,3.475
2007/02/02,09:40:01,145,321,133,0.2,5.4,13.0,13.0,54.7,1017.7,0.00,0,0.0,0.0,0,0.0,11.5,0.0,12.1,3.475
2007/02/02,09:50:01,168,333,148,0.1,5.2,13.0,13.1,54.3,1017.8,0.00,0,0.0,0.0,0,0.0,11.5,0.0,12.1,3.475
2007/02/02,10:00:01,152,331,146,0.2,5.1,12.2,13.1,50.9,1017.9,0.00,0,0.0,0.0,0,0.0,12.3,0.0,12.1,3.475
2007/02/02,10:10:01,151,329,135,0.1,5.2,13.1,13.0,51.3,1017.9,0.00,0,0.0,0.0,0,0.0,12.0,0.0,12.2,3.475
2007/02/02,10:20:01,155,334,147,0.1,4.9,12.5,13.0,49.3,1017.9,0.00,0,0.0,0.0,0,0.0,12.0,0.0,12.2,3.475
2007/02/02,10:30:01,153,327,148,0.1,5.1,12.7,13.0,52.1,1017.9,0.00,0,0.0,0.0,0,0.0,12.3,0.0,12.1,3.474
2007/02/02,10:40:01,152,332,147,0.2,5.1,12.7,13.1,48.9,1017.9,0.00,0,0.0,0.0,0,0.0,12.3,0.0,12.0,3.475
2007/02/02,10:50:01,151,329,139,0.2,5.4,16.2,13.0,52.1,1017.8,0.00,0,0.0,0.0,0,0.0,12.5,0.0,12.1,3.474
2007/02/02,11:00:01,172,328,132,0.1,5.5,13.6,13.2,51.3,1017.9,0.00,0,0.0,0.0,0,0.0,12.2,0.0,12.0,3.474
2007/02/02,11:10:01,162,334,129,0.2,5.0,12.8,13.1,52.7,1017.8,0.00,0,0.0,0.0,0,0.0,12.2,0.0,12.1,3.478
2007/02/02,11:20:01,150,327,140,0.1,4.8,13.2,13.7,52.6,1017.8,0.00,0,0.0,0.0,0,0.0,13.5,0.0,12.1,3.474
2007/02/02,11:30:01,143,318,129,0.1,4.7,11.7,13.5,51.8,1017.8,0.00,0,0.0,0.0,0,0.0,14.2,0.0,12.1,3.474
2007/02/02,11:40:01,147,328,146,0.1,5.3,13.5,13.4,54.1,1017.5,0.00,0,0.0,0.0,0,0.0,13.2,0.0,12.0,3.474
2007/02/02,11:50:01,154,333,143,0.2,5.4,12.7,13.5,52.9,1017.6,0.00,0,0.0,0.0,0,0.0,13.7,0.0,12.0,3.474
2007/02/02,12:00:01,144,323,142,0.2,4.8,12.3,13.6,52.9,1017.5,0.00,0,0.0,0.0,0,0.0,14.7,0.0,12.0,3.474
2007/02/02,12:10:01,172,330,146,0.1,5.0,13.3,13.9,53.9,1017.3,0.00,0,0.0,0.0,0,0.0,14.7,0.0,12.0,3.474
2007/02/02,12:20:01,156,327,146,0.1,5.4,13.9,13.9,55.2,1017.1,0.00,0,0.0,0.0,0,0.0,15.4,0.0,12.1,3.475
2007/02/02,12:30:01,157,335,152,0.0,5.1,14.9,13.3,54.1,1017.0,0.00,0,0.0,0.0,0,0.0,13.4,0.0,12.0,3.474
2007/02/02,12:40:01,148,325,144,0.0,4.6,12.9,13.4,53.7,1016.9,0.00,0,0.0,0.0,0,0.0,12.7,0.0,12.1,3.474
2007/02/02,12:50:01,153,325,142,0.1,4.5,13.0,13.1,57.2,1016.8,0.00,0,0.0,0.0,0,0.0,12.2,0.0,12.1,3.475
2007/02/02,13:00:01,158,335,151,0.1,5.1,13.2,13.2,55.6,1016.7,0.00,0,0.0,0.0,0,0.0,12.2,0.0,12.2,3.475
2007/02/02,13:10:01,188,338,153,0.1,5.6,12.1,13.1,57.2,1016.6,0.00,0,0.0,0.0,0,0.0,12.2,0.0,12.1,3.475
2007/02/02,13:20:01,213,338,156,0.3,5.4,13.9,12.9,55.3,1016.5,0.00,0,0.0,0.0,0,0.0,11.8,0.0,12.1,3.475
2007/02/02,13:30:01,210,332,142,0.1,5.4,13.8,12.9,58.6,1016.4,0.00,0,0.0,0.0,0,0.0,11.5,0.0,12.0,3.478
2007/02/02,13:40:01,188,347,143,0.1,5.6,15.0,13.1,55.3,1016.2,0.00,0,0.0,0.0,0,0.0,11.8,0.0,12.1,3.475
2007/02/02,13:50:01,208,336,135,0.1,5.6,13.4,13.1,56.6,1016.2,0.00,0,0.0,0.0,0,0.0,12.2,0.0,12.1,3.476
2007/02/02,14:00:01,179,330,125,0.1,5.2,14.3,13.1,55.6,1016.1,0.00,0,0.0,0.0,0,0.0,12.2,0.0,12.1,3.475
2007/02/02,14:10:01,155,334,148,0.1,5.1,13.1,13.1,54.0,1016.1,0.00,0,0.0,0.0,0,0.0,12.0,0.0,12.0,3.476